Time,TemperatureF,DewpointF,PressureIn,WindDirection,WindDirectionDegrees,WindSpeedMPH,WindSpeedGustMPH,Humidity,HourlyPrecipIn,Conditions,Clouds,dailyrainin,SoftwareType,DateUTC
2013-02-23 00:10:00,33.0,26.0,30.21,West,272,0.0,-999.0,76,-99.99,,,0.00,weatherlink.com 1.10,2013-02-23 05:10:00,
2013-02-23 00:25:00,33.0,27.0,30.21,ENE,64,0.0,-999.0,77,-99.99,,,0.00,weatherlink.com 1.10,2013-02-23 05:25:00,
2013-02-23 00:40:00,33.1,27.0,30.21,ENE,67,0.0,-999.0,77,-99.99,,,0.00,weatherlink.com 1.10,2013-02-23 05:40:00,
2013-02-23 00:55:00,33.1,27.0,30.20,ENE,67,0.0,-999.0,78,-99.99,,,0.00,weatherlink.com 1.10,2013-02-23 05:55:00,
2013-02-23 01:10:00,33.2,27.0,30.20,NE,49,0.0,-999.0,79,-99.99,,,0.00,weatherlink.com 1.10,2013-02-23 06:10:00,
2013-02-23 01:40:00,33.2,27.0,30.17,ENE,60,0.0,-999.0,79,-99.99,,,0.00,weatherlink.com 1.10,2013-02-23 06:40:00,
2013-02-23 01:55:00,33.2,28.0,30.17,NE,48,0.0,-999.0,80,-99.99,,,0.00,weatherlink.com 1.10,2013-02-23 06:55:00,
2013-02-23 02:10:00,33.1,28.0,30.16,ENE,69,0.0,-999.0,81,-99.99,,,0.00,weatherlink.com 1.10,2013-02-23 07:10:00,
2013-02-23 02:25:00,33.0,28.0,30.17,ENE,65,0.0,-999.0,82,-99.99,,,0.00,weatherlink.com 1.10,2013-02-23 07:25:00,
2013-02-23 02:40:00,33.0,28.0,30.16,NE,40,1.0,-999.0,82,-99.99,,,0.00,weatherlink.com 1.10,2013-02-23 07:40:00,
2013-02-23 02:55:00,32.9,28.0,30.15,NE,38,0.0,-999.0,83,-99.99,,,0.00,weatherlink.com 1.10,2013-02-23 07:55:00,
2013-02-23 03:10:00,33.0,29.0,30.14,NNE,21,0.0,-999.0,84,-99.99,,,0.00,weatherlink.com 1.10,2013-02-23 08:10:00,
2013-02-23 03:25:00,32.9,29.0,30.14,ENE,57,0.0,-999.0,85,-99.99,,,0.00,weatherlink.com 1.10,2013-02-23 08:25:00,
2013-02-23 03:40:00,32.8,29.0,30.13,ENE,76,1.0,-999.0,85,-99.99,,,0.00,weatherlink.com 1.10,2013-02-23 08:40:00,
2013-02-23 03:55:00,32.8,29.0,30.13,NE,51,0.0,-999.0,86,-99.99,,,0.00,weatherlink.com 1.10,2013-02-23 08:55:00,
2013-02-23 04:11:00,32.9,29.0,30.12,ENE,59,0.0,-999.0,86,-99.99,,,0.00,weatherlink.com 1.10,2013-02-23 09:11:00,
2013-02-23 04:25:00,32.9,30.0,30.12,ENE,65,0.0,-999.0,87,-99.99,,,0.00,weatherlink.com 1.10,2013-02-23 09:25:00,
2013-02-23 04:41:00,32.9,30.0,30.12,ENE,75,0.0,-999.0,87,-99.99,,,0.00,weatherlink.com 1.10,2013-02-23 09:41:00,
2013-02-23 04:55:00,33.0,30.0,30.12,ENE,75,1.0,-999.0,87,-99.99,,,0.00,weatherlink.com 1.10,2013-02-23 09:55:00,
2013-02-23 05:11:00,33.2,30.0,30.11,ENE,75,0.0,-999.0,87,-99.99,,,0.00,weatherlink.com 1.10,2013-02-23 10:11:00,
2013-02-23 05:26:00,33.4,30.0,30.11,NE,55,0.0,-999.0,88,-99.99,,,0.00,weatherlink.com 1.10,2013-02-23 10:26:00,
2013-02-23 05:40:00,33.4,30.0,30.10,NE,55,0.0,-999.0,88,-99.99,,,0.00,weatherlink.com 1.10,2013-02-23 10:40:00,
2013-02-23 05:56:00,33.5,30.0,30.10,ENE,58,0.0,-999.0,88,-99.99,,,0.00,weatherlink.com 1.10,2013-02-23 10:56:00,
2013-02-23 06:10:00,33.5,30.0,30.10,ENE,58,0.0,-999.0,88,-99.99,,,0.00,weatherlink.com 1.10,2013-02-23 11:10:00,
2013-02-23 06:25:00,33.5,30.0,30.09,ENE,58,0.0,-999.0,88,-99.99,,,0.00,weatherlink.com 1.10,2013-02-23 11:25:00,
2013-02-23 06:40:00,33.5,30.0,30.09,ENE,58,0.0,-999.0,88,-99.99,,,0.00,weatherlink.com 1.10,2013-02-23 11:40:00,
2013-02-23 06:55:00,33.4,30.0,30.09,ENE,58,0.0,-999.0,87,-99.99,,,0.00,weatherlink.com 1.10,2013-02-23 11:55:00,
2013-02-23 07:10:00,33.3,30.0,30.10,ENE,58,0.0,-999.0,87,-99.99,,,0.00,weatherlink.com 1.10,2013-02-23 12:10:00,
2013-02-23 07:26:00,33.2,30.0,30.09,ENE,58,0.0,-999.0,87,-99.99,,,0.00,weatherlink.com 1.10,2013-02-23 12:26:00,
2013-02-23 07:40:00,33.2,30.0,30.09,ENE,58,0.0,-999.0,87,-99.99,,,0.00,weatherlink.com 1.10,2013-02-23 12:40:00,
2013-02-23 07:56:00,33.4,30.0,30.09,ENE,58,0.0,-999.0,88,-99.99,,,0.00,weatherlink.com 1.10,2013-02-23 12:56:00,
2013-02-23 08:11:00,33.4,30.0,30.08,ENE,58,0.0,-999.0,88,-99.99,,,0.00,weatherlink.com 1.10,2013-02-23 13:11:00,
2013-02-23 08:26:00,33.5,31.0,30.08,East,79,0.0,-999.0,89,-99.99,,,0.00,weatherlink.com 1.10,2013-02-23 13:26:00,
2013-02-23 08:41:00,33.6,31.0,30.07,East,79,0.0,-999.0,89,-99.99,,,0.00,weatherlink.com 1.10,2013-02-23 13:41:00,
2013-02-23 08:56:00,33.6,31.0,30.06,East,79,0.0,-999.0,89,-99.99,,,0.00,weatherlink.com 1.10,2013-02-23 13:56:00,
2013-02-23 09:11:00,33.7,31.0,30.05,East,79,0.0,-999.0,90,-99.99,,,0.00,weatherlink.com 1.10,2013-02-23 14:11:00,
2013-02-23 09:26:00,33.8,31.0,30.05,East,79,0.0,-999.0,90,-99.99,,,0.00,weatherlink.com 1.10,2013-02-23 14:26:00,
2013-02-23 09:41:00,34.2,32.0,30.03,NNE,32,0.0,-999.0,91,-99.99,,,0.00,weatherlink.com 1.10,2013-02-23 14:41:00,
2013-02-23 09:56:00,34.6,32.0,30.02,NNE,32,0.0,-999.0,91,-99.99,,,0.00,weatherlink.com 1.10,2013-02-23 14:56:00,
2013-02-23 10:11:00,35.1,33.0,30.02,NE,42,0.0,-999.0,91,-99.99,,,0.00,weatherlink.com 1.10,2013-02-23 15:11:00,
2013-02-23 10:26:00,35.3,33.0,30.01,NE,45,0.0,-999.0,91,-99.99,,,0.00,weatherlink.com 1.10,2013-02-23 15:26:00,
2013-02-23 10:41:00,35.6,34.0,30.00,NE,45,0.0,-999.0,92,-99.99,,,0.00,weatherlink.com 1.10,2013-02-23 15:41:00,
2013-02-23 10:56:00,36.0,34.0,30.00,NE,45,0.0,-999.0,91,-99.99,,,0.00,weatherlink.com 1.10,2013-02-23 15:56:00,
2013-02-23 11:11:00,36.6,34.0,30.00,SSW,203,1.0,-999.0,91,-99.99,,,0.00,weatherlink.com 1.10,2013-02-23 16:11:00,
2013-02-23 11:26:00,36.4,34.0,30.01,SSW,209,1.0,-999.0,91,-99.99,,,0.00,weatherlink.com 1.10,2013-02-23 16:26:00,
2013-02-23 11:41:00,36.6,34.0,30.01,SSW,209,2.0,-999.0,90,-99.99,,,0.00,weatherlink.com 1.10,2013-02-23 16:41:00,
2013-02-23 11:56:00,36.6,34.0,30.01,West,277,0.0,-999.0,90,-99.99,,,0.00,weatherlink.com 1.10,2013-02-23 16:56:00,
2013-02-23 12:11:00,36.4,34.0,30.00,West,269,0.0,-999.0,90,-99.99,,,0.00,weatherlink.com 1.10,2013-02-23 17:11:00,
2013-02-23 12:26:00,36.4,34.0,29.99,SW,216,0.0,-999.0,90,-99.99,,,0.00,weatherlink.com 1.10,2013-02-23 17:26:00,
2013-02-23 12:41:00,36.2,34.0,29.99,SW,217,2.0,-999.0,90,-99.99,,,0.00,weatherlink.com 1.10,2013-02-23 17:41:00,
2013-02-23 12:56:00,36.2,34.0,29.98,SW,217,0.0,-999.0,91,-99.99,,,0.00,weatherlink.com 1.10,2013-02-23 17:56:00,
2013-02-23 13:11:00,36.3,34.0,29.97,SW,217,0.0,-999.0,91,-99.99,,,0.00,weatherlink.com 1.10,2013-02-23 18:11:00,
2013-02-23 13:26:00,36.5,34.0,29.96,SW,217,0.0,-999.0,91,-99.99,,,0.00,weatherlink.com 1.10,2013-02-23 18:26:00,
2013-02-23 13:41:00,37.1,35.0,29.95,SW,217,0.0,-999.0,91,-99.99,,,0.00,weatherlink.com 1.10,2013-02-23 18:41:00,
2013-02-23 13:56:00,37.5,35.0,29.94,SW,217,0.0,-999.0,91,-99.99,,,0.00,weatherlink.com 1.10,2013-02-23 18:56:00,
2013-02-23 14:12:00,37.8,36.0,29.93,SW,217,0.0,-999.0,91,-99.99,,,0.00,weatherlink.com 1.10,2013-02-23 19:12:00,
2013-02-23 14:26:00,38.0,35.0,29.93,SW,217,1.0,-999.0,90,-99.99,,,0.00,weatherlink.com 1.10,2013-02-23 19:26:00,
2013-02-23 14:41:00,37.9,35.0,29.94,SW,217,2.0,-999.0,89,-99.99,,,0.00,weatherlink.com 1.10,2013-02-23 19:41:00,
2013-02-23 14:58:00,37.6,35.0,29.93,SW,228,1.0,-999.0,90,-99.99,,,0.00,weatherlink.com 1.10,2013-02-23 19:58:00,
2013-02-23 15:12:00,37.4,35.0,29.93,SW,228,0.0,-999.0,89,-99.99,,,0.00,weatherlink.com 1.10,2013-02-23 20:12:00,
2013-02-23 15:28:00,37.4,35.0,29.92,SW,228,0.0,-999.0,90,-99.99,,,0.00,weatherlink.com 1.10,2013-02-23 20:28:00,
2013-02-23 15:43:00,37.4,35.0,29.92,SW,228,0.0,-999.0,90,-99.99,,,0.00,weatherlink.com 1.10,2013-02-23 20:43:00,
2013-02-23 15:58:00,37.3,35.0,29.91,SW,228,0.0,-999.0,90,-99.99,,,0.00,weatherlink.com 1.10,2013-02-23 20:58:00,
2013-02-23 16:14:00,37.3,35.0,29.90,SW,228,0.0,-999.0,90,-99.99,,,0.00,weatherlink.com 1.10,2013-02-23 21:14:00,
2013-02-23 16:28:00,37.3,35.0,29.90,SW,228,0.0,-999.0,90,-99.99,,,0.00,weatherlink.com 1.10,2013-02-23 21:28:00,
2013-02-23 16:43:00,37.2,35.0,29.89,SW,228,0.0,-999.0,90,-99.99,,,0.00,weatherlink.com 1.10,2013-02-23 21:43:00,
2013-02-23 16:58:00,37.1,35.0,29.89,SW,228,0.0,-999.0,90,-99.99,,,0.00,weatherlink.com 1.10,2013-02-23 21:58:00,
2013-02-23 17:13:00,37.0,34.0,29.89,SW,228,2.0,-999.0,90,-99.99,,,0.00,weatherlink.com 1.10,2013-02-23 22:13:00,
2013-02-23 17:28:00,36.8,34.0,29.89,SW,228,0.0,-999.0,90,-99.99,,,0.00,weatherlink.com 1.10,2013-02-23 22:28:00,
2013-02-23 17:43:00,36.6,34.0,29.90,SW,228,0.0,-999.0,90,-99.99,,,0.00,weatherlink.com 1.10,2013-02-23 22:43:00,
2013-02-23 17:58:00,36.4,34.0,29.90,SW,228,0.0,-999.0,90,-99.99,,,0.00,weatherlink.com 1.10,2013-02-23 22:58:00,
2013-02-23 18:13:00,36.2,34.0,29.91,SW,228,1.0,-999.0,91,-99.99,,,0.00,weatherlink.com 1.10,2013-02-23 23:13:00,
2013-02-23 18:28:00,36.2,34.0,29.91,SW,228,0.0,-999.0,91,-99.99,,,0.00,weatherlink.com 1.10,2013-02-23 23:28:00,
2013-02-23 18:43:00,36.1,34.0,29.90,SW,228,0.0,-999.0,91,-99.99,,,0.00,weatherlink.com 1.10,2013-02-23 23:43:00,
2013-02-23 18:58:00,36.0,34.0,29.90,SW,228,0.0,-999.0,91,-99.99,,,0.00,weatherlink.com 1.10,2013-02-23 23:58:00,
2013-02-23 19:13:00,35.9,34.0,29.90,SW,228,0.0,-999.0,91,-99.99,,,0.00,weatherlink.com 1.10,2013-02-24 00:13:00,
2013-02-23 19:28:00,35.7,33.0,29.89,SW,228,0.0,-999.0,91,-99.99,,,0.00,weatherlink.com 1.10,2013-02-24 00:28:00,
2013-02-23 19:43:00,35.6,33.0,29.90,SW,228,0.0,-999.0,91,-99.99,,,0.00,weatherlink.com 1.10,2013-02-24 00:43:00,
2013-02-23 19:58:00,35.6,33.0,29.89,SW,228,0.0,-999.0,91,-99.99,,,0.00,weatherlink.com 1.10,2013-02-24 00:58:00,
2013-02-23 20:13:00,35.5,33.0,29.89,SW,228,0.0,-999.0,91,-99.99,,,0.00,weatherlink.com 1.10,2013-02-24 01:13:00,
2013-02-23 20:28:00,35.5,33.0,29.89,SW,228,0.0,-999.0,91,-99.99,,,0.00,weatherlink.com 1.10,2013-02-24 01:28:00,
2013-02-23 20:43:00,35.4,33.0,29.88,SW,228,0.0,-999.0,91,-99.99,,,0.00,weatherlink.com 1.10,2013-02-24 01:43:00,
2013-02-23 20:58:00,35.3,33.0,29.87,SW,228,0.0,-999.0,91,-99.99,,,0.00,weatherlink.com 1.10,2013-02-24 01:58:00,
2013-02-23 21:13:00,35.3,33.0,29.87,SW,228,0.0,-999.0,91,-99.99,,,0.00,weatherlink.com 1.10,2013-02-24 02:13:00,
2013-02-23 21:29:00,35.3,33.0,29.87,SW,228,0.0,-999.0,92,-99.99,,,0.00,weatherlink.com 1.10,2013-02-24 02:29:00,
2013-02-23 21:44:00,35.3,33.0,29.88,SW,228,0.0,-999.0,92,-99.99,,,0.00,weatherlink.com 1.10,2013-02-24 02:44:00,
2013-02-23 21:59:00,35.3,33.0,29.87,SW,228,0.0,-999.0,92,-99.99,,,0.00,weatherlink.com 1.10,2013-02-24 02:59:00,
2013-02-23 22:13:00,35.3,33.0,29.86,SW,228,0.0,-999.0,92,-99.99,,,0.00,weatherlink.com 1.10,2013-02-24 03:13:00,
2013-02-23 22:28:00,35.3,33.0,29.86,SW,228,0.0,-999.0,92,-99.99,,,0.00,weatherlink.com 1.10,2013-02-24 03:28:00,
2013-02-23 22:43:00,35.3,33.0,29.86,SW,228,0.0,-999.0,92,-99.99,,,0.00,weatherlink.com 1.10,2013-02-24 03:43:00,
2013-02-23 22:58:00,35.2,33.0,29.86,SW,228,0.0,-999.0,92,-99.99,,,0.00,weatherlink.com 1.10,2013-02-24 03:58:00,
2013-02-23 23:14:00,35.2,33.0,29.85,SW,228,0.0,-999.0,92,-99.99,,,0.00,weatherlink.com 1.10,2013-02-24 04:14:00,
2013-02-23 23:29:00,35.3,34.0,29.85,SW,229,0.0,-999.0,93,-99.99,,,0.00,weatherlink.com 1.10,2013-02-24 04:29:00,
2013-02-23 23:44:00,35.4,34.0,29.85,SW,234,0.0,-999.0,93,-99.99,,,0.00,weatherlink.com 1.10,2013-02-24 04:44:00,
2013-02-23 23:59:00,35.3,34.0,29.84,SW,234,0.0,-999.0,93,-99.99,,,0.00,weatherlink.com 1.10,2013-02-24 04:59:00,